Location: ???????
(55.3811°N, 38.4602°E)
Time: 07:06:18
(UTC+00:00)

Daily predictions for brighter satellites

Satellite Brightness Start Highest point End
(mag) Time Altitude Azimuth Time Altitude Azimuth Time Altitude Azimuth
COSMOS 2428 3.0 19:02:28 10° NNW 19:08:09 66° NE 19:13:50 10° SE
USA 234 3.5 19:01:59 10° ENE 19:08:17 47° SE 19:14:33 10° SW
Cosmos 1707 Rocket 3.6 19:06:20 10° S 19:10:47 87° E 19:15:15 10° NNE
SPOT 3 Rocket 4.2 19:07:53 10° S 19:12:56 53° W 19:18:01 10° NNW
Cosmos 1814 Rocket 4.4 19:08:18 10° NNW 19:13:32 61° WSW 19:18:47 10° S
Cosmos 1400 Rocket 3.7 19:10:51 10° SSW 19:14:36 48° WNW 19:18:20 10° N
Cosmos 1741 Rocket 4.1 19:09:24 10° SSW 19:14:41 83° ESE 19:20:03 10° NNE
Meteor 1-21 4.3 19:09:21 10° S 19:15:09 80° ESE 19:21:01 10° NNE
ATLAS CENTAUR R/B 1.0 19:14:48 10° SSW 19:18:17 62° SE 19:21:55 10° NE
Timation 1 Rocket 4.4 19:13:02 10° SW 19:19:01 87° NW 19:25:02 10° NE
Cosmos 1408 4.4 19:24:02 10° ESE 19:25:28 13° E 19:26:55 10° ENE
Cosmos 1733 Rocket 4.1 19:21:23 10° NNW 19:25:33 42° W 19:29:44 10° SSW
NOSS 5 (C) 4.3 19:23:54 10° NW 19:27:09 67° SW 19:30:17 10° SE
Cosmos 1356 Rocket 3.9 19:23:17 10° SSW 19:27:28 65° WNW 19:31:40 10° N
Cosmos 2360 Rocket 3.4 19:22:55 10° NW 19:27:59 35° WSW 19:33:02 10° S
Cosmos 1953 2.2 19:24:32 10° NNW 19:28:23 89° W 19:32:12 10° S
Okean 1-7 3.1 19:26:04 10° S 19:30:20 62° E 19:34:37 10° NNE
Terra 3.4 19:26:19 10° SSW 19:30:24 29° W 19:34:32 10° NNW
Okean 2 3.5 19:27:37 10° S 19:31:33 61° E 19:35:33 10° NNE
BlueWalker 3 3.4 19:31:59 10° S 19:34:23 16° SE 19:36:46 10° ESE
ARIANE 5 R/B 2.8 19:30:24 10° SSE 19:34:40 62° ENE 19:38:59 10° N
Cosmos 1315 Rocket 2.9 19:31:42 10° S 19:35:38 66° E 19:39:38 10° NNE
Cosmos 2208 Rocket 4.0 19:34:15 10° NNW 19:39:30 83° ENE 19:44:38 10° SSE
Nadezhda 1 Rocket 4.2 19:33:16 10° N 19:39:37 71° ENE 19:45:48 10° SSE
SL-16 R/B 4.4 19:37:15 10° WNW 19:40:34 16° W 19:43:53 10° SW
Cosmos 1908 Rocket 3.6 19:36:50 10° NNW 19:41:12 78° W 19:45:31 10° S
Cosmos 1455 2.2 19:40:08 10° NNW 19:43:38 66° W 19:47:07 10° S
Cosmos 1782 Rocket 3.7 19:39:53 10° N 19:44:12 65° ENE 19:48:19 11° SSE
GP-B 3.3 19:40:13 10° N 19:44:37 62° E 19:48:54 10° S
Cosmos 2333 Rocket 3.7 19:42:19 10° NW 19:47:09 28° WSW 19:51:59 10° SSW
SL-27 R/B 3.5 19:48:03 10° SW 19:50:40 36° WNW 19:53:19 10° NNE
Aureole 3 4.3 19:47:22 10° SSW 19:51:36 61° WNW 19:56:58 10° N
ATLAS 2AS CENTAUR R/B 4.0 19:48:48 10° WNW 19:54:25 28° WSW 19:59:52 10° S
SL-16 R/B 3.7 19:52:57 10° NNW 19:58:07 33° NE 20:03:14 10° E
Cosmos 1300 Rocket 3.6 19:55:35 10° N 19:59:54 77° ENE 20:03:50 12° SSE
COSMOS 2455 3.7 19:55:27 10° S 20:00:38 31° ESE 20:05:52 10° NE
USA 281 3.3 19:56:48 11° SSE 20:03:12 73° WSW 20:09:49 10° NNW
Cosmos 1833 4.4 19:58:58 10° SW 20:04:36 77° NW 20:10:16 10° NNE
Cosmos 2237 Rocket 2.4 19:58:56 10° NNW 20:04:38 71° NE 20:10:17 10° SE
Landsat 5 4.2 20:01:13 10° N 20:05:06 51° WNW 20:09:06 10° SW
Cosmos 1703 4.5 20:03:36 12° SE 20:06:19 26° E 20:09:28 10° NNE
Cosmos 2322 4.3 20:03:55 10° NW 20:09:22 49° WSW 20:14:26 12° S
NOSS 0 Rocket 4.0 20:05:13 10° NW 20:11:27 74° WSW 20:17:15 12° SSE
Spot 4 3.9 20:08:52 12° SSE 20:13:16 75° ENE 20:18:06 10° NNW
Cosmos 2098 Rocket 4.4 20:08:31 10° N 20:15:03 59° ENE 20:21:01 12° SSE
Cosmos 2227 Rocket 4.0 20:11:53 10° SE 20:15:16 16° E 20:18:40 10° ENE
Meteor 1-4 Rocket 4.0 20:14:17 10° SW 20:16:56 28° WNW 20:19:38 10° N
Cosmos 1980 3.8 20:12:21 10° NW 20:18:04 87° ENE 20:23:30 11° SSE
Okean 2 Rocket 4.2 20:14:31 10° N 20:18:39 35° ENE 20:22:46 10° SE
Cosmos 1242 Rocket 2.2 20:16:40 10° SSW 20:19:22 60° WNW 20:22:06 10° N
Cosmos 1825 4.3 20:20:36 10° ESE 20:22:16 13° E 20:23:54 10° NE
Meteor 1-24 Rocket 4.4 20:18:14 13° SSE 20:23:06 42° E 20:28:19 10° NNE
BREEZE-M DEB (TANK) 1.7 20:20:05 10° W 20:24:05 53° S 20:26:09 10° ESE
ALOS 2 2.8 20:20:31 13° SSE 20:24:23 68° ENE 20:28:47 10° N
H-2A R/B 2.6 20:22:25 14° S 20:26:07 77° WSW 20:30:22 10° NNW
Cosmos 1703 Rocket 4.0 20:22:58 10° SSW 20:27:23 61° WNW 20:31:49 10° N
EXPRESS MD2 3.4 20:26:40 10° WSW 20:28:20 18° S 20:28:21 18° S
Cosmos 2297 Rocket 2.9 20:30:07 13° S 20:34:33 37° ESE 20:39:41 10° NE
SL-4 R/B 3.0 20:31:25 10° W 20:34:51 28° SSW 20:37:39 14° SSE
Cosmos 1709 Rocket 4.1 20:30:06 12° S 20:36:01 74° E 20:42:22 10° NNE
SJ 16-02 2.9 20:37:58 10° WSW 20:41:56 34° NW 20:45:56 10° NNE
Cosmos 2219 Rocket 4.1 20:41:55 10° WNW 20:45:44 19° W 20:49:32 10° SW
Sich 1 Rocket 4.0 20:41:32 10° N 20:45:54 57° ENE 20:49:36 14° SSE
CZ-4C R/B 2.4 20:43:51 12° SSW 20:47:52 43° SE 20:53:23 10° NE
Cosmos 2242 Rocket 3.7 20:46:04 13° SSW 20:50:08 86° W 20:54:45 10° NNE
USA 234 3.3 20:45:09 10° ENE 20:51:45 88° SSE 20:58:19 10° WSW
COSMOS 2428 3.9 20:47:07 10° NW 20:52:04 31° WSW 20:56:33 12° SSW
CENTAUR R/B 3.8 20:49:56 13° SSE 20:53:43 23° ESE 20:58:55 10° ENE
NOSS 8 (E) 4.4 20:50:13 10° SW 20:53:48 57° SE 20:56:45 10° ENE
MINOTAUR 4 R/B 4.4 20:51:32 10° N 20:54:20 44° WNW 20:57:00 11° SW
ATLAS CENTAUR R/B 3.1 20:52:55 10° W 20:56:10 31° NNW 20:59:34 10° NE
Cosmos 1408 2.8 20:55:18 13° SSW 20:57:48 48° WNW 21:00:45 10° N
Meteor 2-5 Rocket 3.9 20:58:01 14° S 21:03:14 79° E 21:09:03 10° NNE
Cosmos 2263 Rocket 4.1 21:02:39 10° SE 21:05:53 16° E 21:09:06 10° ENE
Cosmos 1818 4.2 21:00:48 10° NW 21:06:15 60° NE 21:11:40 10° ESE
Cosmos 405 Rocket 2.9 21:05:19 10° NNW 21:09:01 59° W 21:11:47 17° S
ARIANE 5 R/B 4.4 21:08:12 10° SW 21:11:28 21° W 21:14:46 10° NW
BlueWalker 3 2.1 21:08:19 10° SW 21:11:54 44° SSE 21:15:29 10° E
Okean 1 Rocket 3.2 21:10:21 10° N 21:14:42 70° ENE 21:18:20 15° SSE
Cosmos 371 Rocket 3.4 21:15:10 10° SSW 21:19:53 81° WNW 21:24:46 10° NNE
Cosmos 2084 Rocket 4.0 21:20:54 16° SSW 21:23:58 39° SE 21:27:50 10° ENE
PSLV R/B 3.5 21:22:43 10° NNE 21:26:59 76° ESE 21:30:16 16° S
Cosmos 1538 Rocket 4.0 21:24:20 10° NNW 21:29:33 89° WSW 21:34:29 12° SSE
NOSS 8 (H) 4.1 21:26:58 10° SW 21:30:24 88° SSE 21:33:19 10° NE
Cosmos 1777 Rocket 4.0 21:25:44 13° SSW 21:30:27 81° ESE 21:35:46 10° NNE
H-2A R/B 2.3 21:26:47 10° NNE 21:31:01 56° ESE 21:34:11 16° S
Cosmos 1503 Rocket 4.1 21:26:53 11° SSW 21:31:57 87° WNW 21:37:16 10° NNE
Cosmos 1892 2.4 21:31:59 18° S 21:34:30 81° ESE 21:38:03 10° NNE
Cosmos 2181 Rocket 4.3 21:30:51 10° NNW 21:36:54 56° W 21:42:03 14° SSW
Cosmos 1703 4.4 21:38:06 10° SW 21:41:28 34° WNW 21:44:53 10° N
SL-16 R/B 2.2 21:37:04 10° NW 21:42:47 76° WSW 21:48:23 10° SSE
Cosmos 1975 Rocket 4.5 21:39:37 10° SSE 21:43:17 29° E 21:47:05 10° NNE
NOSS 3-2 (A) 4.4 21:40:26 14° SSE 21:44:05 28° ESE 21:49:14 10° ENE
Helios 1A Rocket 4.0 21:42:10 10° SE 21:45:41 37° ENE 21:49:14 10° N
COSMOS 2455 3.1 21:40:06 10° SW 21:46:09 76° NW 21:52:14 10° NE
Cosmos 2237 Rocket 3.4 21:43:31 10° NW 21:48:16 28° WSW 21:52:14 13° SSW
Cosmos 1455 Rocket 3.3 21:45:49 10° N 21:50:16 71° ENE 21:54:16 13° SSE
Cosmos 2151 Rocket 4.5 21:46:21 10° NNW 21:50:24 37° W 21:53:43 14° SSW
Cosmos 2074 Rocket 4.0 21:46:00 14° S 21:51:23 90° SSW 21:57:40 10° NNE
Orbus 7S? 2.4 21:49:16 10° WNW 21:51:58 68° SSW 21:55:00 10° ESE
Cosmos 1328 3.8 21:51:50 17° S 21:54:47 77° E 21:58:41 10° NNE
Cosmos 1943 3.8 21:50:08 10° NNW 21:55:43 59° NE 22:01:16 10° SE
Cosmos 1825 2.1 21:53:24 16° SSW 21:55:58 65° WNW 21:59:23 10° N
Okean 2 Rocket 4.1 21:52:35 10° NNW 21:56:41 36° W 22:00:06 14° SSW
Cosmos 923 Rocket 4.2 21:52:04 10° NNW 21:57:23 76° ENE 22:02:37 10° SSE
Cosmos 2227 Rocket 2.3 21:53:22 13° SSW 21:58:23 73° ESE 22:04:03 10° NE
CZ-2C R/B 4.4 21:53:48 10° ESE 21:58:23 30° ENE 22:03:05 10° N
Cosmos 1869 4.4 21:55:52 10° N 21:59:20 37° ENE 22:02:48 10° SE
ALOS 2 4.4 21:57:59 10° SW 22:01:11 20° W 22:04:24 10° NW
Cosmos 1674 Rocket 4.0 21:58:17 14° SSW 22:01:58 56° WNW 22:06:15 10° N
Cosmos 1378 Rocket 4.2 21:58:19 13° SW 22:02:07 49° WNW 22:06:25 10° N
Cosmos 1025 Rocket 3.1 22:00:50 16° S 22:04:19 75° E 22:08:38 10° NNE
Cosmos 1898 Rocket 4.3 22:07:10 13° S 22:11:23 40° ESE 22:16:13 10° NE
Cosmos 332 Rocket 4.0 22:09:31 12° SW 22:14:05 72° WNW 22:19:00 10° NNE
Aureole 1 Rocket 3.4 22:14:13 15° S 22:17:10 50° ESE 22:21:49 10° NE
Cosmos 2297 Rocket 2.8 22:12:51 10° SW 22:18:25 57° NW 22:24:01 10° NNE
Cosmos 2221 Rocket 4.5 22:18:28 11° SW 22:22:28 41° WNW 22:26:42 10° N
Nadezhda 3 Rocket 4.4 22:16:36 10° NNW 22:22:42 54° W 22:28:07 13° SSW
Cosmos 2219 3.3 22:18:32 14° SSW 22:23:25 66° ESE 22:29:01 10° NE
Cosmos 1606 2.8 22:21:40 10° N 22:25:15 66° ENE 22:28:47 10° SSE
Resurs 1-4 Rocket 3.9 22:21:34 10° NE 22:25:40 22° E 22:29:45 10° SE
Meteor 1-21 Rocket 4.3 22:23:19 13° SSW 22:28:28 90° SW 22:34:10 10° NNE
USA 234 3.5 22:28:13 10° E 22:34:46 79° N 22:41:20 10° W
ATLAS CENTAUR R/B 4.1 22:31:59 10° NW 22:34:47 20° N 22:37:40 10° NE
CZ-4C R/B 2.7 22:31:07 10° WSW 22:36:05 61° NNW 22:42:31 10° NE
Cosmos 1680 Rocket 3.5 22:33:45 10° NNW 22:38:58 74° WSW 22:44:09 10° SSE
Cosmos 2366 rocket 4.4 22:33:10 10° S 22:39:20 61° E 22:45:27 10° NNE
Cosmos 2112 Rocket 4.0 22:36:47 10° NNW 22:42:00 80° WSW 22:47:11 10° SSE
BREEZE-M DEB (TANK) 3.7 22:38:39 10° W 22:42:43 19° SW 22:44:22 14° S
CENTAUR R/B 2.7 22:37:09 10° SW 22:43:09 79° SE 22:50:41 10° NE
Cosmos 2263 Rocket 2.3 22:43:42 12° SSW 22:48:51 72° ESE 22:54:25 10° NE
Cosmos 1818 4.0 22:44:34 10° NW 22:49:44 43° WSW 22:54:51 10° SSE
BlueWalker 3 1.8 22:46:07 10° W 22:49:50 64° S 22:53:33 10° E
Meteor 2-1 Rocket 4.5 22:45:01 10° NNW 22:50:50 62° W 22:56:35 10° S
Cosmos 990 Rocket 4.3 22:47:56 10° SW 22:53:01 60° WNW 22:58:08 10° NNE
Cosmos 2228 3.0 22:49:40 10° NNW 22:54:03 86° E 22:58:20 10° SSE
Cosmos 1544 Rocket 3.7 22:57:48 10° NNW 23:02:13 64° W 23:06:35 10° S
Cosmos 2084 Rocket 4.0 22:58:52 10° WSW 23:03:00 54° NNW 23:07:00 10° NE
H-2A R/B 3.8 23:02:58 10° N 23:06:26 24° WNW 23:09:49 10° WSW
Cosmos 1844 Rocket 4.1 23:03:31 10° SSE 23:08:10 28° ESE 23:12:51 10° NE
SL-8 Rocket 4.0 23:03:22 10° SSW 23:09:31 81° WNW 23:15:47 10° N
MOZ.5/SAFIR/RUBIN 5/SL-8 3.9 23:05:04 10° S 23:09:38 57° WSW 23:14:13 10° NNW
IDEFIX/ARIANE 42P 3.1 23:04:28 10° NNE 23:09:40 56° E 23:14:48 10° S
SL-16 R/B 3.3 23:06:56 10° SE 23:13:00 57° ENE 23:19:06 10° NNW
Cosmos 1048 Rocket 4.3 23:08:49 10° NNW 23:14:02 74° ENE 23:19:19 10° SE
Meteor 1-27 4.3 23:08:10 10° NNW 23:14:02 86° W 23:19:51 10° S
Cosmos 724 4.3 23:11:18 10° NW 23:17:09 89° NE 23:23:00 10° SE
Helios 1A Rocket 3.9 23:16:52 10° SSW 23:20:05 27° W 23:23:24 10° NW
Cosmos 1975 Rocket 3.8 23:16:47 10° SW 23:20:57 42° WNW 23:25:10 10° N
CZ-2C R/B 3.9 23:16:27 10° NNE 23:21:45 47° E 23:26:43 10° S
SL-19 R/B 4.3 23:20:37 10° N 23:23:34 43° WNW 23:26:19 10° SW
Cosmos 494 Rocket 4.0 23:19:25 10° NNW 23:24:40 76° WSW 23:29:54 10° SSE
Cosmos 372 Rocket 4.1 23:19:28 10° SW 23:24:43 74° WNW 23:29:57 10° NNE
Cosmos 1727 Rocket 4.1 23:18:44 10° NNW 23:25:06 82° W 23:31:27 10° S
GEOS 3 Rocket 3.8 23:20:08 10° NE 23:25:21 77° NW 23:30:28 10° WSW
ALOS 4.2 23:21:42 10° NE 23:25:29 24° E 23:29:15 10° SE
Meteor 1-28 Rocket 4.1 23:22:07 10° SE 23:25:32 47° ENE 23:28:58 10° N
SL-16 R/B 3.8 23:22:24 10° WNW 23:25:59 17° W 23:29:34 10° SW
Cosmos 1461 2.8 23:23:33 10° SW 23:27:28 70° SE 23:31:20 10° NE
Cosmos 921 Rocket 2.9 23:25:15 10° NNW 23:29:31 76° WSW 23:33:42 10° SSE
Meteor 2-13 Rocket 4.5 23:24:33 10° NNW 23:30:38 74° W 23:36:43 10° S
Cosmos 1603 3.9 23:26:08 10° NW 23:31:47 57° WSW 23:37:22 10° SSE
CZ-2D R/B 2.5 23:26:48 10° NNE 23:32:08 61° ESE 23:37:21 10° S
COSMOS 2455 4.5 23:27:32 10° W 23:32:57 33° NNW 23:38:25 10° NE
NOSS 3-2 (A) 3.5 23:28:37 10° SW 23:34:07 84° NW 23:40:52 10° NE
Cosmos 1606 Rocket 3.6 23:33:09 10° NNW 23:37:38 89° ENE 23:42:04 10° S
CZ-2C R/B 2.8 23:33:03 10° S 23:38:19 63° WSW 23:43:45 10° NNW
Cosmos 1943 3.9 23:34:29 10° NW 23:39:33 35° WSW 23:44:34 10° S
FENGYUN 3A 4.4 23:35:39 10° NNE 23:40:55 51° E 23:46:09 10° S
NOSS 3-2 (C) 3.5 23:35:53 10° SW 23:41:16 67° SE 23:47:46 10° NE
Cosmos 2082 4.1 23:36:00 10° SW 23:41:35 61° NW 23:47:11 10° NNE
Cosmos 1867 4.4 23:36:42 10° SSW 23:41:50 43° ESE 23:47:01 10° NE
Cosmos 2227 Rocket 3.6 23:37:46 10° WSW 23:42:56 34° NW 23:48:06 10° NNE
Cosmos 1937 Rocket 3.9 23:41:48 10° SW 23:47:00 60° WNW 23:52:13 10° NNE
